Regional Weather Roundup
Issued by NWS

Home | Current Version | Previous Version | Graphics & Text | Print | Product List | Glossary On
Versions: 1 2 3 4 5 6 7 8 9 10 11 12 13 14 15 16 17 18 19 20 21 22 23 24 25 26 27 28 29 30 31 32 33 34 35 36 37 38 39 40 41 42 43 44 45 46 47 48 49 50
000
ASUS44 KMEG 271700
RWRTN
TENNESSEE HOURLY STATE WEATHER ROUNDUP
NATIONAL WEATHER SERVICE MEMPHIS TN
1200 PM CDT FRI MAR 27 2015

TNZ002-004-019-021-049-052-054-088>092-271800-
WEST TENNESSEE

CITY           SKY/WX    TMP DP  RH WIND       PRES   REMARKS
MEMPHIS INTL   CLOUDY    48  38  68 NW13      30.11S
NWS MEMPHIS      N/A     46 N/A N/A MISG        N/A
JACKSON        LGT RAIN  46  32  58 NW6G16    30.08S
DYERSBURG      PTSUNNY   46  27  46 NW14      30.11S
UNION CITY     PTSUNNY   45  37  76 N15       30.08S
PARIS          CLOUDY    45  30  57 NW9       30.05S
LEXINGTON      CLOUDY    46  28  49 N8        30.04S
SAVANNAH       CLOUDY    46  32  57 N9        30.05F
$$

TNZ008-025-027-028-033-062-065-066-271800-
NORTH MIDDLE TENNESSEE

CITY           SKY/WX    TMP DP  RH WIND       PRES   REMARKS
NASHVILLE      PTSUNNY   49  30  48 N12       30.02R
CLARKSVILLE    PTSUNNY   47  32  56 N14       30.03F
COOKEVILLE     MOSUNNY   46  28  49 NE9       29.94F
CROSSVILLE     MOSUNNY   44  26  49 N12       29.92S
$$

TNZ061-075-076-078-094-096-097-271800-
SOUTH MIDDLE TENNESSEE

CITY           SKY/WX    TMP DP  RH WIND       PRES   REMARKS
FAYETTEVILLE   MOSUNNY   46  30  53 NW9       29.97S
TULLAHOMA      PTSUNNY   46  28  49 N17       29.97F
WINCHESTER     MOSUNNY   46  30  53 N9        29.96F
COLUMBIA       CLOUDY    46  32  57 VRB7      30.00S
SHELBYVILLE    MOSUNNY   46  32  57 N10       29.99F
$$

TNZ017-018-042-046-047-271800-
NORTHEAST TENNESSEE

CITY           SKY/WX    TMP DP  RH WIND       PRES   REMARKS
TRI CITIES     PTSUNNY   44  31  60 N13G20    29.87S
ELIZABETHTON   CLOUDY    39  28  65 VRB5      29.85S
$$

TNZ012-013-036-069-073-074-271800-
CENTRAL EAST TENNESSEE

CITY           SKY/WX    TMP DP  RH WIND       PRES   REMARKS
KNOXVILLE      PTSUNNY   47  32  56 N8G21     29.91F
OAK RIDGE      PTSUNNY   48  28  46 VRB3      29.93F
GATLINBURG     CLOUDY    43  30  61 NW8       29.90S
$$

TNZ083-085-099-271800-
SOUTHEAST TENNESSEE

CITY           SKY/WX    TMP DP  RH WIND       PRES   REMARKS
CHATTANOOGA    PTSUNNY   51  30  44 NW12      29.93F
$$

SKY/WX REPORTED AS FAIR MEANS FEW OR NO CLOUDS BELOW
12 THOUSAND FEET.



USA.gov is the U.S. government's official web portal to all federal, state and local government web resources and services.